• MPC Preparation (Info)

  • MPEC 2010-V50 : 2010 VO1

    The following Minor Planet Electronic Circular may be linked-to from your own Web pages, but must not otherwise be redistributed electronically.

    A form allowing access to any MPEC is at the bottom of this page.


    Read MPEC 2010-V49 Read MPEC 2010-V51


    M.P.E.C. 2010-V50                                Issued 2010 Nov. 4, 19:32 UT
    
         The Minor Planet Electronic Circulars contain information on unusual
             minor planets and routine data on comets.  They are published
       on behalf of Commission 20 of the International Astronomical Union by the
              Minor Planet Center, Smithsonian Astrophysical Observatory,
                              Cambridge, MA 02138, U.S.A.
    
                 Prepared using the Tamkin Foundation Computer Network
    
                                  MPC@CFA.HARVARD.EDU
           URL https://www.minorplanetcenter.org/iau/mpc.html  ISSN 1523-6714
    
                                       2010 VO1
    
    Observations:
         K10V01O* C2010 11 04.23933 01 50 15.86 -30 30 43.5          19.1 V EV050703
         K10V01O  C2010 11 04.24387 01 50 16.90 -30 28 28.6          19.2 V EV050703
         K10V01O  C2010 11 04.24846 01 50 18.06 -30 26 06.4          19.1 V EV050703
         K10V01O  C2010 11 04.25307 01 50 19.14 -30 23 45.5          19.0 V EV050703
         K10V01O  C2010 11 04.28297 01 50 24.90 -30 08 27.6          18.5 R EV050H01
         K10V01O  C2010 11 04.28596 01 50 27.16 -30 06 52.1          19.0 V EV050703
         K10V01O  C2010 11 04.28653 01 50 27.20 -30 06 34.1          18.9 V EV050703
         K10V01O  C2010 11 04.28691 01 50 25.89 -30 06 25.2          18.8 R EV050H01
         K10V01O  C2010 11 04.28766 01 50 27.56 -30 06 00.2          18.4 V EV050703
         K10V01O  C2010 11 04.29067 01 50 26.84 -30 04 28.0          19.4 R EV050H01
         K10V01O  C2010 11 04.29465 01 50 27.82 -30 02 23.9          18.6 R EV050H01
         K10V01O  C2010 11 04.30359 01 50 30.06 -29 57 44.6          18.9 R EV050H01
         K10V01O QC2010 11 04.64477 01 52 40.03 -26 49 23.4          18.9 V EV050E12
    
    Observer details:
    703 Catalina Sky Survey.  Observer R. E. Hill.  Measurers J. D. Ahern,
        E. C. Beshore, A. Boattini, G. J. Garradd, A. R. Gibbs, A. D. Grauer,
        R. E. Hill, R. A. Kowalski, S. M. Larson, R. H. McNaught.  0.68-m Schmidt
        + CCD.
    E12 Siding Spring Survey.  Observer G. J. Garradd.  0.5-m Uppsala Schmidt
        + CCD.
    H01 Magdalena Ridge Observatory, Socorro.  Observer W. H. Ryan.  2.4-m f/8.9
        reflector + CCD.
    
    Orbital elements:
    2010 VO1                                                 Earth MOID = 0.0197 AU
    Epoch 2010 July 23.0 TT = JDT 2455400.5                 MPC
    M 301.71157              (2000.0)            P               Q
    n   0.60758512     Peri.  346.22223     +0.84702513     -0.51690092
    a   1.3805897      Node    45.60908     +0.50264665     +0.70304037
    e   0.2724450      Incl.    9.98834     +0.17290105     +0.48841343
    P   1.62           H   25.6           G   0.15           U   8
    Residuals in seconds of arc
    101104 703  0.5+  1.7+    101104 703  0.4+  0.4-    101104 H01  0.1+  0.5+
    101104 703  0.4-  1.8-    101104 703  0.9-  0.1-    101104 H01  0.0   0.5+
    101104 703  0.2+  0.2+    101104 H01  0.0   0.2+    101104 E12  0.0   0.0
    101104 703  0.3-  0.0     101104 703  0.2+  1.3-
    101104 H01  0.1-  0.2+    101104 H01  0.2+  0.4+
    
    Ephemeris:
    2010 VO1                 a,e,i = 1.38, 0.27, 10                  q = 1.0045
    Date    TT    R. A. (2000) Decl.     Delta      r     Elong.  Phase     V
    2010 10 31    01 22.13   -54 41.8    0.0338   1.005   110.3    67.9    20.6
    2010 11 01    01 28.65   -50 43.2    0.0307   1.005   113.9    64.5    20.3
    2010 11 02    01 35.24   -45 49.9    0.0278   1.006   118.4    60.2    20.0
    2010 11 03    01 41.89   -39 48.4    0.0251   1.006   124.1    54.7    19.6
    2010 11 04    01 48.58   -32 24.9    0.0228   1.007   131.1    48.0    19.2
    2010 11 05    01 55.32   -23 30.6    0.0210   1.008   139.5    39.7    18.8
    2010 11 06    02 02.07   -13 11.1    0.0198   1.008   149.2    30.2    18.4
    2010 11 07    02 08.84   -01 55.2    0.0193   1.009   159.6    20.0    18.1
    2010 11 08    02 15.60   +09 26.6    0.0197   1.010   168.8    11.0    17.8
    2010 11 09    02 22.34   +20 01.6    0.0208   1.011   171.5     8.3    17.8
    2010 11 10    02 29.05   +29 15.1    0.0225   1.012   165.9    13.8    18.2
    2010 11 11    02 35.71   +36 57.1    0.0247   1.013   159.4    20.1    18.6
    2010 11 12    02 42.30   +43 14.0    0.0274   1.015   153.8    25.5    19.0
    2010 11 13    02 48.80   +48 19.0    0.0303   1.016   149.2    30.0    19.3
    2010 11 14    02 55.20   +52 26.1    0.0335   1.017   145.4    33.5    19.7
    2010 11 15    03 01.47   +55 47.3    0.0368   1.019   142.4    36.3    19.9
    2010 11 16    03 07.61   +58 32.4    0.0402   1.020   140.0    38.6    20.2
    2010 11 17    03 13.60   +60 48.9    0.0437   1.022   138.0    40.4    20.4
    2010 11 18    03 19.41   +62 42.7    0.0473   1.023   136.3    41.8    20.7
    2010 11 19    03 25.05   +64 18.1    0.0510   1.025   135.0    43.0    20.9
    2010 11 20    03 30.50   +65 38.6    0.0547   1.027   133.9    43.9    21.0
    
    Timothy B. Spahr             (C) Copyright 2010 MPC           M.P.E.C. 2010-V50
    

    Read MPEC 2010-V49 Read MPEC 2010-V51


    MPEC number:

    Enter an MPEC number in one of the following forms:

    • 1997-B01 (the full form)
    • J97B01 (the packed version of the full form)
    • B01 (the abbreviated form)